Weather Roundup
Issued by NWS

Home | Current Version | Previous Version | Graphics & Text | Print | Product List | Glossary Off
Versions: 1 2 3 4 5 6 7 8 9 10 11 12 13 14 15 16 17 18 19 20 21 22 23 24 25 26 27 28 29 30 31 32 33 34 35 36 37 38 39 40 41 42 43 44 45 46 47 48 49 50

694
NZUS93 KARX 190059
HRRWXR

CURRENT HOURLY OBSERVATIONS ACROSS
MUCH OF THE UPPER MISSISSIPPI VALLEY
NATIONAL WEATHER SERVICE LA CROSSE WI
800 PM CDT MON SEP 18 2017


...SOUTHEAST MINNESOTA...


CITY           SKY/WX    TMP DP  RH WIND       PRES   REMARKS
ROCHESTER      CLOUDY    57  56  96 SE8       29.98R
ROCHESTER/MAYO CLOUDY    57  57 100 SE8       29.98S
WINONA         CLOUDY    57  54  88 SE3       29.99S
AUSTIN         RAIN      59  57  94 SE8       29.96S
ALBERT LEA     DRIZZLE   64  63  94 SE3       29.95S
DODGE CENTER   MOCLDY    57  55  94 SE7       29.97S
PRESTON        MOCLDY    57  55  93 E3        29.98F
OWATONNA       CLOUDY    59  57  94 SE7       29.95F
FARIBAULT      CLOUDY    57  57 100 E6        29.95F
$$

...ELSEWHERE IN MINNESOTA...


CITY           SKY/WX    TMP DP  RH WIND       PRES   REMARKS
MINNEAPOLIS    CLOUDY    58  56  93 SE10      29.96S
INTNL FALLS    PTCLDY    56  50  80 VRB7      29.94R
DULUTH         CLOUDY    54  49  83 S10       30.00S
RED WING       CLOUDY    57  54  88 E6        29.96F
REDWOOD FALLS  CLOUDY    62  59  90 SE9       29.90R
MANKATO        CLOUDY    60  59  96 SE13      29.93S
WORTHINGTON    CLOUDY    63  62  97 E6        29.90S FOG
FAIRMONT       CLOUDY    62  61  96 SE7       29.92F FOG
$$

...SOUTHWEST WISCONSIN...


CITY           SKY/WX    TMP DP  RH WIND       PRES   REMARKS
LA CROSSE      PTCLDY    60  58  92 CALM      29.98F
PRAIRIE DU CHI CLOUDY    65  56  72 CALM      29.97S
BOSCOBEL       CLOUDY    67  57  70 CALM      29.98S
LONE ROCK      CLOUDY    66  59  78 CALM      29.98S
PLATTEVILLE    CLOUDY    68  59  71 E5        29.98S
FORT MC COY    CLOUDY    57  57 100 W3        30.01F
CAMP DOUGLAS   CLOUDY    59  59 100 W3        30.00S
MAUSTON-NEW LI MOCLDY    64  58  81 CALM      30.00S
VIROQUA        CLOUDY    58  58  99 E6        30.00F
WIS DELLS      NOT AVBL
$$

...ELSEWHERE IN WISCONSIN...


CITY           SKY/WX    TMP DP  RH WIND       PRES   REMARKS
MILWAUKEE      MOCLDY    63  57  81 NE6       30.03F
MADISON        CLOUDY    67  56  67 E13       30.00F
GREEN BAY      CLOUDY    61  54  77 E5        30.07R
EAU CLAIRE     NOT AVBL
BLACK RVR FLS  CLOUDY    58  58 100 CALM      30.00F
MEDFORD        DRIZZLE   57  55  95 SE7       30.01F
WAUSAU         LGT RAIN  58  56  93 E8        30.01F
WIS RAPIDS     CLOUDY    63  58  83 E5        30.02F
MARSHFIELD     LGT RAIN  59  57  93 SE7       30.01F
RICE LAKE      CLOUDY    55  54  95 E3        30.02F
$$

...NORTHEAST IOWA...


CITY           SKY/WX    TMP DP  RH WIND       PRES   REMARKS
WATERLOO       MOCLDY    64  60  87 E3        29.95R
DUBUQUE        MOCLDY    69  59  70 E5        29.97F
DECORAH        CLOUDY    61  59  94 E5        29.97S
MASON CITY     CLOUDY    63  60  90 SE7       29.96R
CHARLES CITY   CLOUDY    63  63 100 SE7       29.96S
OELWEIN        CLOUDY    64  61  88 E7        29.97S
$$

...ELSEWHERE IN IOWA...


CITY           SKY/WX    TMP DP  RH WIND       PRES   REMARKS
DES MOINES     MOCLDY    69  66  90 SE6       29.93R
IOWA CITY      CLOUDY    69  67  93 S3        29.95F
FORT DODGE     CLOUDY    67  64  90 E7        29.93S
MARSHALLTOWN   PTCLDY    64  64 100 CALM      29.95R
CEDAR RAPIDS   CLOUDY    66  65  96 CALM      29.95R
$$

...NORTHERN ILLINOIS...


CITY           SKY/WX    TMP DP  RH WIND       PRES   REMARKS
CHICAGO-OHARE  MOCLDY    67  56  67 NE9       30.01S
CHICAGO-MIDWAY MOCLDY    69  56  62 E8        30.01S
MOLINE         CLOUDY    73  64  73 CALM      29.94R
ROCKFORD       CLOUDY    69  55  60 E12       29.99F
PEORIA         CLOUDY    77  64  64 CALM      29.94S
$$

NOTE: "FAIR" INDICATES FEW OR NO CLOUDS BELOW 12,000 FEET WITH NO
SIGNIFICANT WEATHER AND/OR OBSTRUCTIONS TO VISIBILITY. WIND
SPEEDS ARE IN MILES-PER-HOUR.




USA.gov is the U.S. government's official web portal to all federal, state and local government web resources and services.